Regional Weather Roundup
Issued by NWS Charleston, SC

Home | Current Version | Previous Version | Text Only | Print | Product List | Glossary On
Versions: 1 2 3 4 5 6 7 8 9 10 11 12 13 14 15 16 17 18 19 20 21 22 23 24 25 26 27 28 29 30 31 32 33 34 35 36 37 38 39 40 41 42 43 44 45 46 47 48 49 50
000
ASUS42 KCHS 291128
RWRCHS

REGIONAL WEATHER ROUNDUP
NATIONAL WEATHER SERVICE CHARLESTON SC
700 AM EDT THU SEP 29 2016

NOTE: "FAIR" INDICATES FEW OR NO CLOUDS BELOW 12,000 FEET WITH NO
SIGNIFICANT WEATHER AND/OR OBSTRUCTIONS TO VISIBILITY.

NOT ALL STATIONS ARE QUALITY CONTROLLED. USE DATA WITH CAUTION...
ESPECIALLY DEWPOINT OBSERVATIONS.

SCZ027-030-031-034>040-042>050-291200-
...SOUTHEAST SOUTH CAROLINA...

CITY           SKY/WX    TMP DP  RH WIND       PRES   REMARKS
N CHARLESTON   PTCLDY    75  72  90 S8        29.93R
WATERFRONT PRK   N/A     78  75  90 VRB3      29.91S
MOUNT PLEASANT FAIR      75  73  94 CALM      29.94S
JOHNS ISLAND   FAIR      77  73  88 CALM      29.94S
PINOPOLIS        N/A     75  73  94 S5        29.85R
MONCKS CORNER  FAIR      72  72 100 SW5       29.93S
SUMMERVILLE    FAIR      73  73 100 CALM      29.94S
BEAUFORT MCAS  PTCLDY    75  72  90 S3        29.94R
BEAUFORT ARPT  FAIR      75  72  88 SW6       29.94R
HILTON HEAD IS CLEAR     75  73  94 S6        29.96R
WALTERBORO     SUNNY     73 N/A N/A SW3       29.94S
ALLENDALE      CLOUDY    72  70  94 SE5       29.93R FOG

...SOUTHERN MIDLANDS AND PEE DEE...

CITY           SKY/WX    TMP DP  RH WIND       PRES   REMARKS
GEORGETOWN     FAIR      75  73  94 S6        29.95R
KINGSTREE      PTSUNNY   73  72  94 CALM      29.93R FOG
ORANGEBURG     CLOUDY    71  71 100 S3        29.93R FOG
BARNWELL       NOT AVBL
AIKEN          FAIR      66  64  94 SW3       29.96R
MANNING        FAIR      73  72  94 S3        29.93R
COLUMBIA       PTCLDY    71  68  90 CALM      29.90R
SUMTER         CLEAR     73  71  94 S7        29.90R
FLORENCE       CLEAR     74  73  97 S5        29.92R
MYRTLE BEACH   MOCLDY    81  68  65 SW9       29.95S
N MYRTLE BEACH MOCLDY    80  75  84 S13       29.93S

$$

GAZ063-065-086>088-099>101-113>116-118-119-134>141-150-291200-
...SOUTHEAST GEORGIA...

CITY           SKY/WX    TMP DP  RH WIND       PRES   REMARKS
SAVANNAH ARPT  CLOUDY    74  71  91 SW9       29.95R
HUNTER AAF     CLOUDY    74  74 100 SW6       29.93R
FORT STEWART   CLOUDY    73  71  93 SW5       29.93R
STATESBORO     MOCLDY    72  72 100 CALM      29.95R
SYLVANIA       NOT AVBL
CLAXTON        FAIR      70  70 100 CALM      29.95R FOG

...CSRA...CENTRAL AND FAR SOUTHEAST GEORGIA...

CITY           SKY/WX    TMP DP  RH WIND       PRES   REMARKS
THOMSON        PTCLDY    63  63  97 CALM      29.98R
AUGUSTA-BUSH   CLEAR     69  67  93 CALM      29.91R
AUGUSTA-DANIEL MOCLDY    71  65  81 CALM      29.93R
SWAINSBORO     FAIR      70  70 100 CALM      29.95R
VIDALIA        CLEAR     72  72 100 CALM      29.95S FOG
EASTMAN        FOG       69  69 100 CALM      29.98R VSB<1/4
HAZLEHURST     FAIR      73  73 100 CALM      29.95R
ALMA           CLOUDY    71  71 100 CALM      29.96R FOG
WAYCROSS       FOG       75  75 100 SW5       29.97R VSB 1
JESUP          CLOUDY    73  73 100 SW6       29.97R FOG
BAXLEY         MOCLDY    72  72 100 CALM      29.96R FOG
BRUNSWICK      CLOUDY    73  73 100 SW6       29.98R
SAINT SIMONS   PTCLDY    74  72  93 SW10      29.96R

$$

SCZ027-028-034-036>038-045-046-048>050-GAZ119-141-291200-
...LAKE AND SUPPLEMENTAL COASTAL OBSERVATIONS...

STATION/POSITION TIME  TEMP    WIND        PRES    WAVE   SWELL
                       AIR SEA DIR/SP/G            HT/PER HT/PER/DIR
                 (UTC) (F)     (DEG/KT/KT) (MB)    (FT/S) (FT/S/D)
WINYAH BAY       1045   79     180/  3     1013.0S
LAKE MURRAY      1050   74     230/  4/  6 1012.2R
ACE BASIN NERRS  1045   76        CALM     1014.0S
FORT PULASKI     1100   75 81  220/  5/ 10 1014.5
SAPELO ISLAND    1100   75     230/  8     1014.0

$$

ANZ835-935-AMZ111-154-330-350-352-354-370-450-454-472-291200-
...C-MAN AND BUOY OBSERVATIONS...

STATION/POSITION TIME  TEMP    WIND        PRES    WAVE   SWELL
                       AIR SEA DIR/SP/G            HT/PER HT/PER/DIR
                 (UTC) (F)     (DEG/KT/KT) (MB)    (FT/S) (FT/S/D)
BUOY 41004       1050   81 82  220/ 10/ 12 1013.4R   3/ 4   2/110/11
BUOY 41008       1050   78 82  220/ 16/ 17 1013.7R   3/ 4   2/100/11
FOLLY BEACH CMAN 1100   79     230/  7/  9 1013.9R
CAPERS NEARSHORE 1008   81 81  230/ 12/ 16 1013.4R
FRIPP NEARSHORE  1008   78 81  230/ 14/ 17 1013.4F


STATION/POSITION TIME  TEMP    WIND        PRES    WAVE   SWELL
                       AIR SEA DIR/SP/G            HT/PER HT/PER/DIR
                 (UTC) (F)     (DEG/KT/KT) (MB)    (FT/S) (FT/S/D)
5E ST. MARYS GA  1101      82                N/A     2/11   2/100/11
FRYING PAN BUOY  1110   79 82  160/ 12/ 16 1014.5
BUOY 41025       1050   77 81   80/  4/  6 1015.3R   3/11   3/ 70/11
CAPE LOOKOUT NC  1100   78     190/  3/  4 1015.0R
BUOY 41002       1050   80 83  180/ 12/ 16 1016.4R   4/11   2/ 70/11
BUOY 41010       NOT AVBL
ST AUGUSTINE FL  1100   72 83  230/  6/  9 1016.6R


$$



USA.gov is the U.S. government's official web portal to all federal, state and local government web resources and services.